GW3255 Weather Reports


Display with metric or nautical units.
time (UTC)temp
F
wind
direction
speed
MPH
gust
MPH
rain 1hr
in
rain 24hr
in
rain mn
in
humidity
%
barometer
mb
20260507010010 62 260 0.0 4.0 0.03 0.20 0.20 87 1009.9
20260507004529 63 144 0.0 1.0 0.00 0.17 0.17 88 1009.5
20260507003008 63 239 0.0 1.0 0.00 0.17 0.17 87 1009.6
20260507001511 63 88 0.0 2.0 0.00 0.17 0.17 87 1009.1
20260507000008 63 248 0.0 1.0 0.00 0.17 0.17 86 1008.9
20260506234511 64 248 0.0 1.0 0.00 0.17 0.17 84 1008.7
20260506233013 65 235 0.0 2.0 0.00 0.17 0.17 82 1008.6
20260506231511 65 229 2.0 4.0 0.00 0.17 0.17 81 1008.6
20260506230022 65 262 2.0 5.0 0.00 0.17 0.17 81 1008.5
20260506224512 65 259 4.0 9.0 0.00 0.17 0.17 80 1008.6
20260506223011 66 251 6.0 11.0 0.00 0.17 0.17 79 1008.6
20260506221513 66 264 5.0 7.0 0.00 0.17 0.17 80 1008.6
20260506220017 66 263 3.0 7.0 0.00 0.17 0.17 80 1008.4
20260506214515 66 263 3.0 5.0 0.00 0.17 0.17 80 1008.2
20260506213016 66 248 3.0 7.0 0.00 0.17 0.17 80 1008.0
20260506211517 66 152 1.0 7.0 0.00 0.17 0.17 81 1007.9
20260506210020 65 238 3.0 6.0 0.00 0.17 0.17 81 1007.8
20260506204518 65 264 4.0 8.0 0.00 0.17 0.17 81 1007.9
20260506203017 66 267 3.0 9.0 0.00 0.17 0.17 81 1007.9
20260506201527 65 266 3.0 7.0 0.00 0.17 0.17 82 1007.8
20260506200018 65 238 4.0 8.0 0.00 0.17 0.17 83 1007.8
20260506194507 64 260 4.0 7.0 0.00 0.17 0.17 84 1008.0
20260506193004 63 263 5.0 7.0 0.00 0.17 0.17 84 1008.2
20260506191519 64 262 8.0 12.0 0.00 0.17 0.17 83 1008.2
20260506190027 64 276 9.0 13.0 0.00 0.17 0.17 84 1008.3
20260506184520 63 249 7.0 14.0 0.00 0.17 0.17 86 1008.3
20260506183012 61 236 6.0 12.0 0.00 0.17 0.17 88 1008.4
20260506181512 61 260 5.0 12.0 0.00 0.17 0.17 89 1008.7
20260506180014 60 268 5.0 12.0 0.00 0.17 0.17 89 1008.8
20260506174521 60 234 7.0 11.0 0.00 0.17 0.17 89 1009.0
20260506173024 60 249 7.0 11.0 0.00 0.17 0.17 89 1008.8
20260506171537 60 229 8.0 13.0 0.00 0.17 0.17 89 1008.9
20260506170020 59 240 10.0 17.0 0.01 0.17 0.17 89 1008.9
20260506164517 59 239 8.0 16.0 0.01 0.17 0.17 89 1008.9
20260506163014 59 234 8.0 15.0 0.03 0.17 0.17 89 1009.0
20260506161513 59 255 8.0 15.0 0.06 0.17 0.17 90 1009.1
20260506160009 59 264 4.0 12.0 0.08 0.16 0.16 90 1008.8
20260506154511 59 244 3.0 11.0 0.09 0.16 0.16 90 1008.8
20260506153024 59 261 6.0 15.0 0.08 0.14 0.14 90 1009.6
20260506151526 59 215 7.0 11.0 0.06 0.11 0.11 90 1009.8
20260506150019 59 262 5.0 10.0 0.04 0.08 0.08 89 1009.8
20260506144519 59 252 5.0 10.0 0.05 0.07 0.07 90 1009.7
20260506143019 60 254 6.0 10.0 0.05 0.06 0.06 89 1009.5
20260506141512 60 221 4.0 9.0 0.05 0.05 0.05 88 1009.8
20260506140016 60 222 4.0 8.0 0.04 0.04 0.04 87 1009.7
20260506134525 60 249 4.0 8.0 0.02 0.02 0.02 86 1009.7
20260506133030 60 256 4.0 11.0 0.01 0.01 0.01 84 1009.7
20260506131524 61 241 5.0 9.0 0.00 0.00 0.00 83 1009.6
20260506130022 61 263 4.0 10.0 0.00 0.00 0.00 82 1009.8
20260506124522 62 236 6.0 11.0 0.00 0.00 0.00 80 1009.8
20260506123018 62 240 5.0 11.0 0.00 0.00 0.00 79 1010.0
20260506121513 62 240 7.0 13.0 0.00 0.00 0.00 79 1010.1
20260506120030 62 238 7.0 13.0 0.00 0.00 0.00 79 1009.7
20260506114536 62 253 8.0 14.0 0.00 0.00 0.00 79 1009.6
20260506113026 62 247 9.0 17.0 0.00 0.00 0.00 79 1009.6
20260506111525 62 278 8.0 13.0 0.00 0.00 0.00 79 1009.4
20260506110024 62 275 6.0 12.0 0.00 0.00 0.00 79 1009.3
20260506104519 62 274 5.0 14.0 0.00 0.00 0.00 79 1009.2
20260506103016 62 216 6.0 14.0 0.00 0.00 0.00 79 1009.2
20260506101517 61 252 8.0 15.0 0.00 0.00 0.00 78 1009.1
20260506100021 62 245 6.0 12.0 0.00 0.00 0.00 78 1009.1
20260506094507 62 242 8.0 12.0 0.00 0.00 0.00 77 1009.1
20260506093006 62 253 5.0 13.0 0.00 0.00 0.00 76 1009.1
20260506091503 63 200 6.0 15.0 0.00 0.00 0.00 75 1009.3
20260506090023 63 260 7.0 12.0 0.00 0.00 0.00 75 1009.3
20260506084520 63 208 5.0 11.0 0.00 0.00 0.00 75 1009.5
20260506083020 63 260 5.0 12.0 0.00 0.00 0.00 74 1009.4
20260506081515 63 188 5.0 9.0 0.00 0.00 0.00 73 1009.3
20260506073008 64 244 5.0 9.0 0.00 0.00 0.00 71 1009.6
20260506071524 64 220 6.0 10.0 0.00 0.00 0.00 71 1009.6
20260506061516 64 239 3.0 7.0 0.00 0.00 0.00 69 1010.1
20260506044530 64 257 3.0 6.0 0.00 0.00 0.00 65 1010.7
20260506043025 64 255 4.0 7.0 0.00 0.00 0.00 64 1010.7
20260506041517 64 261 4.0 7.0 0.00 0.00 0.00 63 1010.7
20260506040015 64 252 3.0 6.0 0.00 0.00 0.00 63 1010.7
20260506034528 64 238 3.0 5.0 0.00 0.00 0.00 61 1010.7
20260506033033 65 223 1.0 4.0 0.00 0.00 0.00 61 1010.7
20260506031533 65 237 3.0 5.0 0.00 0.00 0.00 61 1010.7
20260506030049 65 233 3.0 6.0 0.00 0.00 0.00 62 1010.7
20260506024528 65 224 3.0 4.0 0.00 0.00 0.00 61 1010.8
20260506023022 65 246 3.0 5.0 0.00 0.00 0.00 61 1010.8
20260506021521 65 253 3.0 4.0 0.00 0.00 0.00 61 1010.8
20260506020028 66 257 2.0 4.0 0.00 0.00 0.00 60 1010.8
20260506014514 66 222 3.0 5.0 0.00 0.00 0.00 59 1010.7
20260506013012 67 234 4.0 6.0 0.00 0.00 0.00 57 1010.4
20260506011508 67 229 3.0 4.0 0.00 0.00 0.00 56 1010.3